Regional Weather Roundup
Issued by NWS Wakefield, VA

Home | Current Version | Previous Version | Graphics & Text | Print | Product List | Glossary On
Versions: 1 2 3 4 5 6 7 8 9 10 11 12 13 14 15 16 17 18 19 20 21 22 23 24 25 26 27 28 29 30 31 32 33 34 35 36 37 38 39 40 41 42 43 44 45 46 47 48 49 50
000
ASUS41 KAKQ 270615
RWRAKQ

REGIONAL WEATHER ROUNDUP
NATIONAL WEATHER SERVICE WAKEFIELD VA
200 AM EDT TUE SEP 27 2016

Note: "fair" indicates few or no clouds below 12,000 feet with no
significant weather and/or obstructions to visibility. * = Denotes
station may not report precipitation (e.g., rain,snow,etc.),
thunder or fog.

VAZ042-051-052>054-056-270700-
NORTHERN VIRGINIA

CITY           SKY/WX    TMP DP  RH WIND       PRES   REMARKS
WASH NATIONAL  CLOUDY    67  66  97 S5        29.96S
DULLES         RAIN      64  63  96 S6        29.96R FOG
FORT BELVOIR   CLOUDY    67  63  89 VRB5      29.96R
QUANTICO       CLOUDY    68  64  87 SW5       29.97S
FREDERICKSBRG* MOCLDY    66  66 100 CALM      29.96S
STAFFORD*      CLOUDY    65  65 100 CALM      30.01S
WARRENTON      LGT RAIN  66  61  85 CALM      29.97R
CULPEPER*      HVY RAIN  66  65  97 S3        29.98R
MANASSAS*      CLOUDY    64  64 100 SW3       29.97R
LEESBURG*      LGT RAIN  64  64 100 CALM      29.97R
WINCHESTER     CLOUDY    66  64  94 CALM      29.96S FOG
FRONT ROYAL*   MOCLDY    64  64 100 CALM      29.95S
LURAY*         CLOUDY   N/A N/A N/A CALM      29.97F
$$

VAZ048-049-060>072-079>083-270700-
CENTRAL AND SOUTH CENTRAL VIRGINIA

CITY           SKY/WX    TMP DP  RH WIND       PRES   REMARKS
RICHMOND       CLOUDY    67  65  93 S7        29.97F
CHESTERFIELD*  MOCLDY    68  54  60 SW5       29.99S
PETERSBURG*    CLOUDY   N/A N/A N/A S5        29.98F
HANOVER        MOCLDY    67  64  90 S3        29.99S
TAPPAHANNOCK*  PTCLDY    67  67 100 S3        29.98F
QUINTON*       FAIR      66  65  97 SE5       29.96F
CHARLOTTSVILLE RAIN      66  64  93 CALM      29.97F FOG
GORDONSVILLE*  CLOUDY    64  64 100 SW3       29.97F
ORANGE*          N/A     66  66 100 CALM      29.99F
LOUISA*        CLOUDY    70  68  94 CALM      29.97S
BUMPASS*       CLOUDY    65  65 100 CALM      29.98R
FARMVILLE*     CLOUDY    68  67  97 SW3       29.98R
CREWE*         FAIR      67  67 100 SW3       29.99R
FORT PICKETT*  MOCLDY    68  67  98 SW12G21   29.99S
CHASE CITY*    MOCLDY    67  66  94 CALM      30.01R
CLARKSVILLE*   FAIR      68  68 100 SW6       30.00R
SOUTH HILL*    CLOUDY    67  66  97 S9        30.06S
LAWRENCEVILLE* CLOUDY    67  67  97 S3        30.00S
EMPORIA*       CLOUDY    68  64  88 CALM      30.02R
$$

VAZ088>098-270700-
SOUTHEAST VIRGINIA

CITY           SKY/WX    TMP DP  RH WIND       PRES   REMARKS
NORFOLK        MOCLDY    72  66  81 S9        29.99F
VIRGINIA BEACH CLOUDY    72  64  76 S7        29.99F
NORFOLK NAVAL  CLOUDY    73  66  78 S7        30.00F
WEST POINT*    CLOUDY    69  65  85 S5        29.99F
SALUDA*        FAIR      68  67  98 S6        29.97S
NEWPORT NEWS   CLOUDY    72  66  81 S12       29.98F
LANGLEY AFB    CLOUDY    73  67  81 SW7       29.98F
FORT EUSTIS    CLOUDY    72  67  84 S9        29.96F
WILLIAMSBURG*  PTCLDY    72  66  83 SW5       29.99F
HR EXEC AP*    MOCLDY    72  64  78 S5        30.01F
FRANKLIN*      CLOUDY    70  65  85 S8        30.00F
US460-WAKEFLD  CLOUDY    69  64  84 S5        29.99F
$$

VAZ020-022-025-037-045-270700-
WEST CENTRAL AND SOUTHWEST VIRGINIA

CITY           SKY/WX    TMP DP  RH WIND       PRES   REMARKS
STAUNTON*      CLOUDY    63  63  99 S6        30.00F FOG
WAYNESBORO*    CLOUDY    63  62  96 CALM      30.00S
HOT SPRINGS VA FOG       50  50 100 W14       30.06S VSB<1/4
LYNCHBURG      CLOUDY    65  65 100 SW3       30.01S
DANVILLE       LGT RAIN  67  66  97 SW6       30.01S
SOUTH BOSTON*  FAIR      67  66  95 CALM      30.01R
MARTINSVILLE   CLOUDY    66  65  96 CALM      30.05S
ROANOKE        CLOUDY    67  66  97 E3        30.03S FOG
BLACKSBURG     LGT RAIN  65  65 100 CALM      30.07F
DUBLIN*        CLOUDY    66  66 100 SW6       30.06S
MARION*        CLOUDY    66  65  95 W5        30.09F
HILLSVILLE*    CLOUDY    63  63 100 S3        30.07S FOG
RICHLANDS*     CLOUDY    63  63 100 NW3       30.08S FOG
WISE*          FOG       61  61 100 N7        30.11S VSB 3/4
ABINGDON*      CLOUDY    68  67  97 SW3       30.06F
$$

MDZ021>025-VAZ099-100-270700-
SOUTHERN MARYLAND AND THE DELMARVA PENINSULA

CITY           SKY/WX    TMP DP  RH WIND       PRES   REMARKS
PATUXENT RIVER LGT RAIN  69  63  81 SW10      29.96F
BAY BRIDGE APT CLOUDY    70  64  83 MISG      29.95S
LEONARDTOWN    CLOUDY    66  63  88 SW7       29.98S
DOVER          CLOUDY    67  67 100 S5        29.94F
GEORGETOWN     CLOUDY    68  65  90 SW8       29.97S
EASTON         NOT AVBL
CAMBRIDGE      CLOUDY    68  64  88 S6        29.96S
SALISBURY      CLOUDY    69  67  93 S7        29.97S
OCEAN CITY     CLOUDY    73  69  87 SW8       29.97F
WALLOPS ISLAND LGT RAIN  73  68  84 SW12      29.99S
ACCOMACK*      CLOUDY    71  65  82 SW7       29.99S
$$

NCZ012>017-030>032-270700-
NORTH CENTRAL AND EASTERN NORTH CAROLINA

CITY           SKY/WX    TMP DP  RH WIND       PRES   REMARKS
ROANOKE RAPIDS CLOUDY    68  64  88 SW6       30.01S
RALEIGH        CLOUDY    70  67  90 W7        30.03S
ELIZABETH CITY CLOUDY    72  66  81 CALM      30.01F
AHOSKIE*       MOCLDY    69  66  91 CALM      30.01S
EDENTON*       CLOUDY    74  68  80 S9        30.02S
CURRITUCK*     CLOUDY    71  67  87 CALM      30.02S
KILL DEVIL HLS PTCLDY    75  70  85 S5        30.01S
MANTEO         PTCLDY    75  69  80 S13       30.02F
CAPE HATTERAS  CLEAR     77  65  66 S12       30.03S
TARBORO*       CLOUDY    70  67  89 S3        30.02S
GOLDSBORO      MOCLDY    71  71 100 N1        30.00S
WASHINGTON     PTCLDY    67  66  96 CALM      30.02S
GREENVILLE     PTCLDY    70  68  94 SW3       30.03F
NEW BERN       CLOUDY    68  66  93 CALM      30.04S
WILMINGTON     MOCLDY    71  69  93 CALM      30.01S
$$

VAZ048-270700-
ELSEWHERE

CITY           SKY/WX    TMP DP  RH WIND       PRES   REMARKS
HARRISBURG PA  CLOUDY    64  63  96 CALM      29.93F
BALTIMORE      CLOUDY    64  61  90 CALM      29.95S
ANNAPOLIS      CLOUDY    67  63  87 CALM      29.94F
ANDREWS AFB    CLOUDY    66  63  88 SW8       29.95S
PHILADELPHIA   CLOUDY    69  64  84 SW10      29.95S
HENDERSON NC   MOCLDY    66  64  92 S7        30.02S
GREENSBORO     LGT RAIN  67  67 100 SW12      30.04S
ROCKY MOUNT    CLOUDY    69  68  96 S5        30.02S
$$

VAZ100-270700-
MARINE

STATION/POSITION TIME  TEMP    WIND        PRES    WAVE   SWELL
                       AIR SEA DIR/SP/G            HT/PER HT/PER
                 (UTC) (F)     (DEG/KT/KT) (MB)    (FT/S) (FT/S)
BRANDYWINE LGT   0500   71     210/ 20/ 24   N/A
CAPE MAY NJ      0500   72 72  190/  8/ 12 1014.0F
LEWES DE         0500   70 72  220/  8/ 13 1014.4F
OCEAN-CITY-INLET 0506   72 72  220/ 10/ 12 1015.3F
WACHAPREAGUE VA  0500   73 74  200/  8/ 11 1015.5F
THOMAS POINT MD  0600   68 74  220/ 10/ 11 1015.4F
GOOSES REEF MD   0500   72 74  220/ 14/ 17 1014.7F
COVE POINT MD    0500   69     220/  9/ 12 1015.0F
SOLOMONS ISLAND  0500   70 75  220/  8/ 10   N/A
BISHOPS HEAD MD  0500   73 71  200/ 15/ 19 1014.8F
PINEY POINT MD   0500          240/ 10/ 14   N/A
POTOMAC MD       0500   72 75  220/ 14/ 17 1014.0F   1/ 2
CAMBRIDGE MD     0500   70 74  180/  4/  8 1013.7F
LEWISETTA VA     0500   71 74  220/ 10/ 13 1014.1F
RAPPAHANNOCK LGT 0500          200/ 20/ 22 1015.7F
STINGRAY PT      0500   74 75  170/ 14/ 17 1015.5F   1/ 3
YORK RVR RNG VA  0500   74     210/ 15/ 18 1014.7F
YORKTOWN VA      0500   73 76  210/  8/ 12 1015.0F
JAMESTOWN VA     0500   72 76  180/ 10/ 14   N/A
DOMINION TERM VA 0500   73     190/  9/ 11 1015.7F
KIPTOPEKE VA     0500      76  200/ 14/ 16   N/A
CHES BAY BRIDGE  0500   73 76  170/ 13/ 15 1015.4F
CAPE HENRY VA    0500   72     200/  6/  9   N/A
WILLOUBY STN VA  0500   73     200/ 13/ 15   N/A
CAPE HENRY BUOY  0512      76                N/A     3/ 5
1ST LANDING BUOY 0500   74 75  220/ 10/ 14 1015.8F   2/ 3
CAPE CHARLES BUO 0456      76                N/A     3/ 5
OFFSHORE WE BUOY 0551      75                N/A     3/ 8
64NM E OF VA BCH 0550   75 74  170/ 16/ 19 1015.7F   3/ 5   2/ 8
DUCK PIER NC     0500   76 76  170/ 10/ 12 1015.8F
44056 DUCK FRF   0511      76                N/A     3/10   2/13
OREGON INLET NC  0500   76 76  160/  8/ 11 1016.6F
HATTERAS NC      0500   78 78  150/ 12/ 17 1016.5F
DIAMOND SHLS NC  0550   79 85  160/ 16/ 19 1016.6F   4/ 6   2/ 7
CAPE LOOKOUT NC  0600   79     150/ 10/ 11 1016.3F
$$



USA.gov is the U.S. government's official web portal to all federal, state and local government web resources and services.